Flag Weather past 2 weeks in Halle, Saxony-Anhalt, Germany

Now
50 °F

Fog.


Feels Like: 47 °F
Forecast: 45 / 58 °F
Wind: 7 mph from South

Location: Leipzig-Schkeuditz

Current Time: Oct 31, 2014 at 12:09:36 AM

Latest Report: Oct 30, 2014 at 11:20 PM


Visibility: 2 mi

Pressure: 30.27 "Hg

Humidity: 100%

Dew point: 50 °F

Location of HalleLocation

Historic Weather in Halle — Graph

°F

Halle temperature yesterday

Maximum temperature yesterday: 52 °F (at 2:50 PM)
Minimum temperature yesterday: 41 °F (at 12:20 AM)
Average temperature yesterday: 48 °F

Past Weeks' High & Low Weather Summary

 TemperatureHumidityPressure
High73 °F (Oct 19, 2:20 PM)100% (Oct 16, 9:50 AM)30.33 "Hg (Oct 16, 9:50 AM)
Low37 °F (Oct 28, 2:50 AM)57% (Oct 19, 3:20 PM)29.47 "Hg (Oct 21, 8:50 PM)
Average52 °F89%30.05 "Hg
* Reported Oct 15 11:20 PM — Oct 30 10:50 PM, Halle, Weather by CustomWeather, © 2014

Note: Actual official high and low records may vary slightly from our data, if they occured in-between our weather recording intervals... More about our weather records

Advertising

Halle weather history for previous 24 hours

 ConditionsComfort  
Time TempWeatherWind HumidityBarometerVisibility
10:50 PM
Oct 30
50 °FFog.8 mph100%30.27 "Hg2 mi
10:20 PM50 °FPassing clouds.6 mph100%30.27 "Hg3 mi
9:50 PM50 °FPassing clouds.6 mph100%30.27 "Hg4 mi
9:20 PM50 °FPassing clouds.5 mph100%30.30 "Hg4 mi
8:50 PM50 °FPartly cloudy.5 mph100%30.27 "Hg4 mi
8:20 PM50 °FPassing clouds.5 mph100%30.27 "Hg4 mi
7:50 PM50 °FPassing clouds.5 mph100%30.27 "Hg4 mi
7:20 PM50 °FPassing clouds.5 mph100%30.27 "Hg4 mi
6:50 PM50 °FPassing clouds.5 mph94%30.27 "Hg4 mi
6:20 PM50 °FPassing clouds.5 mph94%30.27 "Hg4 mi
5:50 PM50 °FPassing clouds.5 mph94%30.27 "Hg4 mi
5:20 PM50 °FPassing clouds.5 mph94%30.27 "Hg4 mi
4:50 PM50 °FPartly cloudy.2 mph94%30.27 "Hg4 mi
4:20 PM50 °FFog.2 mph94%30.27 "Hg3 mi
3:50 PM50 °FFog.3 mph94%30.27 "Hg3 mi
3:20 PM52 °FFog.3 mph88%30.24 "Hg3 mi
2:50 PM52 °FFog.1 mph94%30.24 "Hg3 mi
2:20 PM50 °FFog.2 mph94%30.24 "Hg3 mi
1:50 PM50 °FFog.3 mph94%30.24 "Hg3 mi
1:20 PM50 °FFog.3 mph94%30.24 "Hg3 mi
12:50 PM50 °FFog.6 mph94%30.24 "Hg3 mi
12:20 PM50 °FFog.8 mph94%30.24 "Hg2 mi
11:50 AM50 °FFog.5 mph100%30.24 "Hg2 mi
11:20 AM48 °FFog.5 mph100%30.24 "Hg2 mi
10:50 AM48 °FFog.6 mph100%30.24 "Hg2 mi
10:20 AM48 °FFog.6 mph100%30.24 "Hg2 mi
9:50 AM46 °FFog.7 mph100%30.24 "Hg1 mi
9:20 AM46 °FFog.6 mph100%30.24 "Hg1 mi
8:50 AM46 °FDrizzle. Fog.5 mph100%30.21 "Hg1 mi
8:20 AM46 °FFog.6 mph100%30.21 "Hg1 mi
7:50 AM45 °FFog.6 mph100%30.21 "Hg1 mi
7:20 AM45 °FDrizzle. Fog.5 mph100%30.21 "Hg1 mi
6:50 AM45 °FDrizzle. Fog.5 mph100%30.18 "Hg1 mi
6:20 AM45 °FDrizzle. Fog.5 mph100%30.18 "Hg2 mi
5:50 AM45 °FDrizzle. Fog.5 mph100%30.18 "Hg2 mi
5:20 AM45 °FDrizzle. Overcast.3 mph100%30.18 "Hg4 mi
4:50 AM45 °FPassing clouds.6 mph100%30.18 "Hg5 mi
4:20 AM45 °FPassing clouds.3 mph100%30.18 "Hg5 mi
3:50 AM45 °FPassing clouds.6 mph100%30.15 "Hg6 mi
3:20 AM45 °FPassing clouds.7 mph100%30.15 "Hg6 mi
2:50 AM45 °FLight rain. Passing clouds.5 mph100%30.15 "Hg5 mi
2:20 AM45 °FPassing clouds.5 mph100%30.15 "Hg6 mi
1:50 AM45 °FPassing clouds.6 mph100%30.15 "Hg6 mi
1:20 AM45 °FPassing clouds.5 mph100%30.12 "Hg6 mi
12:50 AM43 °FPassing clouds.5 mph100%30.12 "Hg6 mi
12:20 AM41 °FPassing clouds.5 mph100%30.12 "HgN/A
Weather by CustomWeather, © 2014

See weather overviewHow to use our weather pages